Погода в Ольхах

Россия / Тульская область     53°29′49″N   37°11′59″E
темп.,
°C
ветер,
м/с
пор.,
м/с
влажн.,
%
обл.,
%
осадки,
мм/ч
давл.,
гПа
погр.,
м
19 апреля, пн
пн1900:00+6св3584100 0.0 101891
03:00+5всв35925 0.4 1019117
06:00+4св379766 0.0 1019182
09:00+8всв688468 0.0 1018632
12:00+9всв6780100 0.2 1018900
15:00+6всв7988100 0.3 1019621
18:00+6всв7983100 0.1 1019887
21:00+5всв61093100 0.1 1019547
20 апреля, вт
вт2000:00+6всв61195100 0.3 1017751
03:00+5в61095100 6.6 1017893
06:00+5в61290100 1.4 1016500
09:00+6в7108889 1.4 1016557
12:00+6в7991100 0.0 1016700
15:00+5всв71094100 0.1 1013565
18:00+4всв61195100 0.1 1012621
21:00+3всв71194100 0.1 1009635
21 апреля, ср
ср2100:00+1ссв511100100 3.6 1005339
03:00+1сз61098100 6.0 1001360
06:00+1з61098100 1.1 1002434
09:00+1зюз71198100 1.2 1005627
12:00+3зюз61191100 0.0 1008839
15:00+5зюз51088100 0.1 1010855
18:00+5юз498984 0.0 1012398
21:00+4ю3692100 0.0 1013138
22 апреля, чт
чт2200:00+4ю369299 0.1 1014151
03:00+4ююз369599 0.3 1015165
06:00+3ююз369633 0.0 1016131
09:00+7юз467941 0.0 1017410
12:00+11ююз57589 0.0 10171324
15:00+13ююз685969 0.7 10161478
18:00+12ююз586843 0.9 1017755
21:00+9ю4108435 0.9 1018187
23 апреля, пт
пт2300:00+8ююз388857 0.1 1018159
03:00+7ююз4109049 0.1 1019181
06:00+6ю411905 0.0 1019206
09:00+11ююз6117366 0.1 1019471
12:00+15ююз795980 0.8 10181294
15:00+16ююз811475 1.6 10162333
18:00+15ю711565 0.1 1016674
21:00+11ю6147088 0.2 1016395